Regional Weather Roundup
Issued by NWS Albany, NY

Home | Current Version | Previous Version | Text Only | Print | Product List | Glossary On
Versions: 1 2 3 4 5 6 7 8 9 10 11 12 13 14 15 16 17 18 19 20 21 22 23 24 25 26 27 28 29 30 31 32 33 34 35 36 37 38 39 40 41 42 43 44 45 46 47 48 49 50
000
ASUS41 KALY 252110
RWRALY

NEW YORK STATE HOURLY WEATHER ROUNDUP
NATIONAL WEATHER SERVICE ALBANY NY
400 PM EST TUE NOV 25 2014

NOTE: "FAIR" INDICATES FEW OR NO CLOUDS BELOW 12,000 FEET WITH NO
SIGNIFICANT WEATHER AND/OR NO OBSTRUCTIONS TO VISIBILITY.

NYZ032-033-038>043-046>054-057>066-NYZ062>081-252200-
EAST


CITY           SKY/WX    TMP DP  RH WIND       PRES   REMARKS
ALBANY         MOCLDY    50  25  37 W12       29.96R
GLENS FALLS    MOCLDY    49  26  41 W6        29.94R
POUGHKEEPSIE   CLOUDY    52  27  38 SW8       29.97S
NEWBURGH       MOCLDY    50  30  46 W9        29.98R
MONTGOMERY     CLOUDY    51  27  39 W8        29.97R
WHITE PLAINS   CLOUDY    51  26  37 SW3       29.99R
ISLIP          CLOUDY    53  28  38 W8        29.99R
NEW YORK CITY  CLOUDY    54  28  36 W8        30.00R
CENTRAL PARK   CLOUDY    54  27  35 CALM      30.03R
$$

NYZ005>009-017-018-044>046-055-056-252200-
CENTRAL


CITY           SKY/WX    TMP DP  RH WIND       PRES   REMARKS
FULTON         PTCLDY    44  26  49 W20G25    29.97R
SYRACUSE       PTCLDY    46  28  49 W9        29.95R
ROME           CLEAR     46  28  49 W8        29.95R
ELMIRA         CLEAR     49  25  39 SW14      29.94S
BINGHAMTON     CLEAR     45  24  43 W16       29.93S
MONTICELLO     MOCLDY    46  25  42 W6        29.97R
$$

NYZ026>034-041>043-252200-
NORTH


CITY           SKY/WX    TMP DP  RH WIND       PRES   REMARKS
WATERTOWN      CLOUDY    42  33  70 W17G28    29.96R
FORT DRUM      NOT AVBL
MASSENA        LGT RAIN  42  32  67 SW20G32   29.91R
SARANAC LAKE   FLURRIES  38  24  57 SW15G30   29.86R WCI  29
PLATTSBURGH    MOCLDY    45  25  45 SW6G18    29.91R
$$

NYZ001>004-010>016-019>021-252200-
WEST


CITY           SKY/WX    TMP DP  RH WIND       PRES   REMARKS
NIAGARA FALLS  CLOUDY    35  28  75 W23G29    29.99R WCI  23
BUFFALO        HAIL      37  30  75 W15G30    29.98R WCI  28
DUNKIRK        CLOUDY    38  31  76 W17G31    30.02R WCI  28
JAMESTOWN      CLOUDY    37  25  60 SW16G23   29.99R WCI  28
WELLSVILLE     PTCLDY    40  23  50 W13G25    29.96R WCI  32
ROCHESTER      CLOUDY    42  28  57 W20G32    29.98R
PENN YAN       PTCLDY    47  25  42 W15G26    29.95R
$$

             KEY
       WCI = WIND CHILL INDEX
       VSB = VISIBILITY
       HX  = HEAT INDEX
$$



USA.gov is the U.S. government's official web portal to all federal, state and local government web resources and services.